User: anonymous   Login
Location: Unspecified
(0.0000°N, 0.0000°E)
Time: 14:00:20
(UTC+00:00)
Language:

Oscar 11 - Orbit

View from above orbital plane
View from above orbital plane
View from above satellite
View from above satellite

Ground track
Ground track

The orbit data is extracted from the following two-line orbital elements,

1 14781U 84021B   18050.66566767 +.00000060 +00000-0 +13649-4 0  9992
2 14781 097.6655 091.7947 0009951 106.3832 253.8477 14.82981408806022
Epoch (UTC): 19 February 2018 15:58:33
Eccentricity: 0.0009951
inclination: 97.6655°
perigee height: 613 km
apogee height: 627 km
right ascension of ascending node: 91.7947°
argument of perigee: 106.3832°
revolutions per day: 14.82981408
mean anomaly at epoch: 253.8477°
orbit number at epoch: 80602

The dashed part of the orbit path shows where the satellite is in the earth's shadow,  

DLR